Location: Most
(50.5133°N, 13.6207°E)
Time: 20:25:21
(UTC+01:00)

SEEDS - Pass Details

Date: 28 November 2021
Orbit: 584 x 600 km, 97.6° (Epoch: 23 January)

Event Time Altitude Azimuth Distance (km) Brightness Sun altitude
Rises 06:00:39 0° 2° (N) 2,829 ? -15.2°
Reaches altitude 10° 06:03:15 10° 346° (NNW) 1,921 ? -14.8°
Enters shadow 06:04:48 17° 327° (NNW) 1,526 ? -14.6°
